Index of /20260429/WXO-DD/model_rdps/10km/06/075
Name Last modified Size Description
Parent Directory -
20260429T06Z_MSC_RDPS_AbsoluteVorticity_IsbL-0250_RLatLon0.09_PT075H.grib2 2026-04-29 09:02 598K
20260429T06Z_MSC_RDPS_AbsoluteVorticity_IsbL-0500_RLatLon0.09_PT075H.grib2 2026-04-29 09:02 563K
20260429T06Z_MSC_RDPS_AbsoluteVorticity_IsbL-0700_RLatLon0.09_PT075H.grib2 2026-04-29 09:02 619K
20260429T06Z_MSC_RDPS_AbsoluteVorticity_IsbL-0850_RLatLon0.09_PT075H.grib2 2026-04-29 09:02 777K
20260429T06Z_MSC_RDPS_AirTemp_AGL-120m_RLatLon0.09_PT075H.grib2 2026-04-29 09:02 377K
20260429T06Z_MSC_RDPS_AirTemp_AGL-2m_RLatLon0.09_PT075H.grib2 2026-04-29 09:02 625K
20260429T06Z_MSC_RDPS_AirTemp_AGL-40m_RLatLon0.09_PT075H.grib2 2026-04-29 09:02 393K
20260429T06Z_MSC_RDPS_AirTemp_AGL-80m_RLatLon0.09_PT075H.grib2 2026-04-29 09:02 384K
20260429T06Z_MSC_RDPS_AirTemp_IsbL-0001_RLatLon0.09_PT075H.grib2 2026-04-29 09:02 298K
20260429T06Z_MSC_RDPS_AirTemp_IsbL-0005_RLatLon0.09_PT075H.grib2 2026-04-29 09:02 289K
20260429T06Z_MSC_RDPS_AirTemp_IsbL-0010_RLatLon0.09_PT075H.grib2 2026-04-29 09:02 390K
20260429T06Z_MSC_RDPS_AirTemp_IsbL-0020_RLatLon0.09_PT075H.grib2 2026-04-29 09:02 407K
20260429T06Z_MSC_RDPS_AirTemp_IsbL-0030_RLatLon0.09_PT075H.grib2 2026-04-29 09:02 335K
20260429T06Z_MSC_RDPS_AirTemp_IsbL-0050_RLatLon0.09_PT075H.grib2 2026-04-29 09:02 312K
20260429T06Z_MSC_RDPS_AirTemp_IsbL-0100_RLatLon0.09_PT075H.grib2 2026-04-29 09:02 388K
20260429T06Z_MSC_RDPS_AirTemp_IsbL-0150_RLatLon0.09_PT075H.grib2 2026-04-29 09:02 415K
20260429T06Z_MSC_RDPS_AirTemp_IsbL-0175_RLatLon0.09_PT075H.grib2 2026-04-29 09:02 407K
20260429T06Z_MSC_RDPS_AirTemp_IsbL-0200_RLatLon0.09_PT075H.grib2 2026-04-29 09:02 410K
20260429T06Z_MSC_RDPS_AirTemp_IsbL-0225_RLatLon0.09_PT075H.grib2 2026-04-29 09:02 407K
20260429T06Z_MSC_RDPS_AirTemp_IsbL-0250_RLatLon0.09_PT075H.grib2 2026-04-29 09:02 412K
20260429T06Z_MSC_RDPS_AirTemp_IsbL-0275_RLatLon0.09_PT075H.grib2 2026-04-29 09:02 395K
20260429T06Z_MSC_RDPS_AirTemp_IsbL-0300_RLatLon0.09_PT075H.grib2 2026-04-29 09:02 404K
20260429T06Z_MSC_RDPS_AirTemp_IsbL-0350_RLatLon0.09_PT075H.grib2 2026-04-29 09:02 421K
20260429T06Z_MSC_RDPS_AirTemp_IsbL-0400_RLatLon0.09_PT075H.grib2 2026-04-29 09:02 389K
20260429T06Z_MSC_RDPS_AirTemp_IsbL-0450_RLatLon0.09_PT075H.grib2 2026-04-29 09:02 396K
20260429T06Z_MSC_RDPS_AirTemp_IsbL-0500_RLatLon0.09_PT075H.grib2 2026-04-29 09:02 407K
20260429T06Z_MSC_RDPS_AirTemp_IsbL-0550_RLatLon0.09_PT075H.grib2 2026-04-29 09:02 424K
20260429T06Z_MSC_RDPS_AirTemp_IsbL-0600_RLatLon0.09_PT075H.grib2 2026-04-29 09:02 444K
20260429T06Z_MSC_RDPS_AirTemp_IsbL-0650_RLatLon0.09_PT075H.grib2 2026-04-29 09:02 459K
20260429T06Z_MSC_RDPS_AirTemp_IsbL-0700_RLatLon0.09_PT075H.grib2 2026-04-29 09:02 482K
20260429T06Z_MSC_RDPS_AirTemp_IsbL-0750_RLatLon0.09_PT075H.grib2 2026-04-29 09:02 520K
20260429T06Z_MSC_RDPS_AirTemp_IsbL-0800_RLatLon0.09_PT075H.grib2 2026-04-29 09:02 453K
20260429T06Z_MSC_RDPS_AirTemp_IsbL-0850_RLatLon0.09_PT075H.grib2 2026-04-29 09:02 504K
20260429T06Z_MSC_RDPS_AirTemp_IsbL-0875_RLatLon0.09_PT075H.grib2 2026-04-29 09:02 522K
20260429T06Z_MSC_RDPS_AirTemp_IsbL-0900_RLatLon0.09_PT075H.grib2 2026-04-29 09:02 528K
20260429T06Z_MSC_RDPS_AirTemp_IsbL-0925_RLatLon0.09_PT075H.grib2 2026-04-29 09:02 523K
20260429T06Z_MSC_RDPS_AirTemp_IsbL-0950_RLatLon0.09_PT075H.grib2 2026-04-29 09:02 526K
20260429T06Z_MSC_RDPS_AirTemp_IsbL-0970_RLatLon0.09_PT075H.grib2 2026-04-29 09:02 521K
20260429T06Z_MSC_RDPS_AirTemp_IsbL-0985_RLatLon0.09_PT075H.grib2 2026-04-29 09:02 508K
20260429T06Z_MSC_RDPS_AirTemp_IsbL-1000_RLatLon0.09_PT075H.grib2 2026-04-29 09:02 493K
20260429T06Z_MSC_RDPS_AirTemp_IsbL-1015_RLatLon0.09_PT075H.grib2 2026-04-29 09:02 487K
20260429T06Z_MSC_RDPS_Albedo_Sfc_RLatLon0.09_PT075H.grib2 2026-04-29 09:02 161K
20260429T06Z_MSC_RDPS_CAPE_Sfc_RLatLon0.09_PT075H.grib2 2026-04-29 09:02 1.5M
20260429T06Z_MSC_RDPS_CIN_Sfc_RLatLon0.09_PT075H.grib2 2026-04-29 09:02 1.1M
20260429T06Z_MSC_RDPS_CloudWater_EAtm_RLatLon0.09_PT075H.grib2 2026-04-29 09:02 220K
20260429T06Z_MSC_RDPS_ConvectivePrecip-Accum_Sfc_RLatLon0.09_PT075H.grib2 2026-04-29 09:02 1.2M
20260429T06Z_MSC_RDPS_DewPointDepression_AGL-2m_RLatLon0.09_PT075H.grib2 2026-04-29 09:02 393K
20260429T06Z_MSC_RDPS_DewPointDepression_IsbL-0001_RLatLon0.09_PT075H.grib2 2026-04-29 09:02 193
20260429T06Z_MSC_RDPS_DewPointDepression_IsbL-0005_RLatLon0.09_PT075H.grib2 2026-04-29 09:02 193
20260429T06Z_MSC_RDPS_DewPointDepression_IsbL-0010_RLatLon0.09_PT075H.grib2 2026-04-29 09:02 193
20260429T06Z_MSC_RDPS_DewPointDepression_IsbL-0020_RLatLon0.09_PT075H.grib2 2026-04-29 09:02 193
20260429T06Z_MSC_RDPS_DewPointDepression_IsbL-0030_RLatLon0.09_PT075H.grib2 2026-04-29 09:02 193
20260429T06Z_MSC_RDPS_DewPointDepression_IsbL-0050_RLatLon0.09_PT075H.grib2 2026-04-29 09:02 77K
20260429T06Z_MSC_RDPS_DewPointDepression_IsbL-0100_RLatLon0.09_PT075H.grib2 2026-04-29 09:02 122K
20260429T06Z_MSC_RDPS_DewPointDepression_IsbL-0150_RLatLon0.09_PT075H.grib2 2026-04-29 09:02 150K
20260429T06Z_MSC_RDPS_DewPointDepression_IsbL-0175_RLatLon0.09_PT075H.grib2 2026-04-29 09:02 183K
20260429T06Z_MSC_RDPS_DewPointDepression_IsbL-0200_RLatLon0.09_PT075H.grib2 2026-04-29 09:02 216K
20260429T06Z_MSC_RDPS_DewPointDepression_IsbL-0225_RLatLon0.09_PT075H.grib2 2026-04-29 09:02 251K
20260429T06Z_MSC_RDPS_DewPointDepression_IsbL-0250_RLatLon0.09_PT075H.grib2 2026-04-29 09:02 287K
20260429T06Z_MSC_RDPS_DewPointDepression_IsbL-0275_RLatLon0.09_PT075H.grib2 2026-04-29 09:02 296K
20260429T06Z_MSC_RDPS_DewPointDepression_IsbL-0300_RLatLon0.09_PT075H.grib2 2026-04-29 09:02 313K
20260429T06Z_MSC_RDPS_DewPointDepression_IsbL-0350_RLatLon0.09_PT075H.grib2 2026-04-29 09:02 319K
20260429T06Z_MSC_RDPS_DewPointDepression_IsbL-0400_RLatLon0.09_PT075H.grib2 2026-04-29 09:02 333K
20260429T06Z_MSC_RDPS_DewPointDepression_IsbL-0450_RLatLon0.09_PT075H.grib2 2026-04-29 09:02 349K
20260429T06Z_MSC_RDPS_DewPointDepression_IsbL-0500_RLatLon0.09_PT075H.grib2 2026-04-29 09:02 358K
20260429T06Z_MSC_RDPS_DewPointDepression_IsbL-0550_RLatLon0.09_PT075H.grib2 2026-04-29 09:02 368K
20260429T06Z_MSC_RDPS_DewPointDepression_IsbL-0600_RLatLon0.09_PT075H.grib2 2026-04-29 09:02 380K
20260429T06Z_MSC_RDPS_DewPointDepression_IsbL-0650_RLatLon0.09_PT075H.grib2 2026-04-29 09:02 381K
20260429T06Z_MSC_RDPS_DewPointDepression_IsbL-0700_RLatLon0.09_PT075H.grib2 2026-04-29 09:02 389K
20260429T06Z_MSC_RDPS_DewPointDepression_IsbL-0750_RLatLon0.09_PT075H.grib2 2026-04-29 09:02 409K
20260429T06Z_MSC_RDPS_DewPointDepression_IsbL-0800_RLatLon0.09_PT075H.grib2 2026-04-29 09:02 443K
20260429T06Z_MSC_RDPS_DewPointDepression_IsbL-0850_RLatLon0.09_PT075H.grib2 2026-04-29 09:02 471K
20260429T06Z_MSC_RDPS_DewPointDepression_IsbL-0875_RLatLon0.09_PT075H.grib2 2026-04-29 09:02 473K
20260429T06Z_MSC_RDPS_DewPointDepression_IsbL-0900_RLatLon0.09_PT075H.grib2 2026-04-29 09:02 459K
20260429T06Z_MSC_RDPS_DewPointDepression_IsbL-0925_RLatLon0.09_PT075H.grib2 2026-04-29 09:02 445K
20260429T06Z_MSC_RDPS_DewPointDepression_IsbL-0950_RLatLon0.09_PT075H.grib2 2026-04-29 09:02 442K
20260429T06Z_MSC_RDPS_DewPointDepression_IsbL-0970_RLatLon0.09_PT075H.grib2 2026-04-29 09:02 434K
20260429T06Z_MSC_RDPS_DewPointDepression_IsbL-0985_RLatLon0.09_PT075H.grib2 2026-04-29 09:02 429K
20260429T06Z_MSC_RDPS_DewPointDepression_IsbL-1000_RLatLon0.09_PT075H.grib2 2026-04-29 09:02 423K
20260429T06Z_MSC_RDPS_DewPointDepression_IsbL-1015_RLatLon0.09_PT075H.grib2 2026-04-29 09:02 414K
20260429T06Z_MSC_RDPS_DewPoint_AGL-2m_RLatLon0.09_PT075H.grib2 2026-04-29 09:02 393K
20260429T06Z_MSC_RDPS_DownwardLongwaveRadiationFlux-Accum_Sfc_RLatLon0.09_PT075H.grib2 2026-04-29 09:02 427K
20260429T06Z_MSC_RDPS_DownwardShortwaveRadiationFlux-Accum_NTAtm_RLatLon0.09_PT075H.grib2 2026-04-29 09:02 134K
20260429T06Z_MSC_RDPS_DownwardShortwaveRadiationFlux-Accum_Sfc_RLatLon0.09_PT075H.grib2 2026-04-29 09:02 618K
20260429T06Z_MSC_RDPS_FreezingRain-Accum1h_Sfc_RLatLon0.09_PT075H.grib2 2026-04-29 09:02 47K
20260429T06Z_MSC_RDPS_FreezingRain-Accum3h_Sfc_RLatLon0.09_PT075H.grib2 2026-04-29 09:02 51K
20260429T06Z_MSC_RDPS_FreezingRain-Accum_Sfc_RLatLon0.09_PT075H.grib2 2026-04-29 09:02 215K
20260429T06Z_MSC_RDPS_GeopotentialHeight_IsbL-0001_RLatLon0.09_PT075H.grib2 2026-04-29 09:02 340K
20260429T06Z_MSC_RDPS_GeopotentialHeight_IsbL-0005_RLatLon0.09_PT075H.grib2 2026-04-29 09:02 305K
20260429T06Z_MSC_RDPS_GeopotentialHeight_IsbL-0010_RLatLon0.09_PT075H.grib2 2026-04-29 09:02 307K
20260429T06Z_MSC_RDPS_GeopotentialHeight_IsbL-0020_RLatLon0.09_PT075H.grib2 2026-04-29 09:02 402K
20260429T06Z_MSC_RDPS_GeopotentialHeight_IsbL-0030_RLatLon0.09_PT075H.grib2 2026-04-29 09:02 404K
20260429T06Z_MSC_RDPS_GeopotentialHeight_IsbL-0050_RLatLon0.09_PT075H.grib2 2026-04-29 09:02 309K
20260429T06Z_MSC_RDPS_GeopotentialHeight_IsbL-0100_RLatLon0.09_PT075H.grib2 2026-04-29 09:02 286K
20260429T06Z_MSC_RDPS_GeopotentialHeight_IsbL-0150_RLatLon0.09_PT075H.grib2 2026-04-29 09:02 229K
20260429T06Z_MSC_RDPS_GeopotentialHeight_IsbL-0175_RLatLon0.09_PT075H.grib2 2026-04-29 09:02 232K
20260429T06Z_MSC_RDPS_GeopotentialHeight_IsbL-0200_RLatLon0.09_PT075H.grib2 2026-04-29 09:02 266K
20260429T06Z_MSC_RDPS_GeopotentialHeight_IsbL-0225_RLatLon0.09_PT075H.grib2 2026-04-29 09:02 266K
20260429T06Z_MSC_RDPS_GeopotentialHeight_IsbL-0250_RLatLon0.09_PT075H.grib2 2026-04-29 09:02 266K
20260429T06Z_MSC_RDPS_GeopotentialHeight_IsbL-0275_RLatLon0.09_PT075H.grib2 2026-04-29 09:02 265K
20260429T06Z_MSC_RDPS_GeopotentialHeight_IsbL-0300_RLatLon0.09_PT075H.grib2 2026-04-29 09:02 265K
20260429T06Z_MSC_RDPS_GeopotentialHeight_IsbL-0350_RLatLon0.09_PT075H.grib2 2026-04-29 09:02 230K
20260429T06Z_MSC_RDPS_GeopotentialHeight_IsbL-0400_RLatLon0.09_PT075H.grib2 2026-04-29 09:02 227K
20260429T06Z_MSC_RDPS_GeopotentialHeight_IsbL-0450_RLatLon0.09_PT075H.grib2 2026-04-29 09:02 296K
20260429T06Z_MSC_RDPS_GeopotentialHeight_IsbL-0500_RLatLon0.09_PT075H.grib2 2026-04-29 09:02 292K
20260429T06Z_MSC_RDPS_GeopotentialHeight_IsbL-0550_RLatLon0.09_PT075H.grib2 2026-04-29 09:02 289K
20260429T06Z_MSC_RDPS_GeopotentialHeight_IsbL-0600_RLatLon0.09_PT075H.grib2 2026-04-29 09:02 284K
20260429T06Z_MSC_RDPS_GeopotentialHeight_IsbL-0650_RLatLon0.09_PT075H.grib2 2026-04-29 09:02 255K
20260429T06Z_MSC_RDPS_GeopotentialHeight_IsbL-0700_RLatLon0.09_PT075H.grib2 2026-04-29 09:02 254K
20260429T06Z_MSC_RDPS_GeopotentialHeight_IsbL-0750_RLatLon0.09_PT075H.grib2 2026-04-29 09:02 339K
20260429T06Z_MSC_RDPS_GeopotentialHeight_IsbL-0800_RLatLon0.09_PT075H.grib2 2026-04-29 09:02 347K
20260429T06Z_MSC_RDPS_GeopotentialHeight_IsbL-0850_RLatLon0.09_PT075H.grib2 2026-04-29 09:02 359K
20260429T06Z_MSC_RDPS_GeopotentialHeight_IsbL-0875_RLatLon0.09_PT075H.grib2 2026-04-29 09:02 362K
20260429T06Z_MSC_RDPS_GeopotentialHeight_IsbL-0900_RLatLon0.09_PT075H.grib2 2026-04-29 09:02 365K
20260429T06Z_MSC_RDPS_GeopotentialHeight_IsbL-0925_RLatLon0.09_PT075H.grib2 2026-04-29 09:02 368K
20260429T06Z_MSC_RDPS_GeopotentialHeight_IsbL-0950_RLatLon0.09_PT075H.grib2 2026-04-29 09:02 371K
20260429T06Z_MSC_RDPS_GeopotentialHeight_IsbL-0970_RLatLon0.09_PT075H.grib2 2026-04-29 09:02 376K
20260429T06Z_MSC_RDPS_GeopotentialHeight_IsbL-0985_RLatLon0.09_PT075H.grib2 2026-04-29 09:02 383K
20260429T06Z_MSC_RDPS_GeopotentialHeight_IsbL-1000_RLatLon0.09_PT075H.grib2 2026-04-29 09:02 395K
20260429T06Z_MSC_RDPS_GeopotentialHeight_IsbL-1015_RLatLon0.09_PT075H.grib2 2026-04-29 09:02 409K
20260429T06Z_MSC_RDPS_Humidex_Sfc_RLatLon0.09_PT075H.grib2 2026-04-29 09:02 2.4M
20260429T06Z_MSC_RDPS_IcePellets-Accum1h_Sfc_RLatLon0.09_PT075H.grib2 2026-04-29 09:02 6.2K
20260429T06Z_MSC_RDPS_IcePellets-Accum3h_Sfc_RLatLon0.09_PT075H.grib2 2026-04-29 09:02 8.2K
20260429T06Z_MSC_RDPS_IcePellets-Accum_Sfc_RLatLon0.09_PT075H.grib2 2026-04-29 09:02 39K
20260429T06Z_MSC_RDPS_KIndex_Sfc_RLatLon0.09_PT075H.grib2 2026-04-29 09:02 2.5M
20260429T06Z_MSC_RDPS_LatentHeatNetFlux_Sfc_RLatLon0.09_PT075H.grib2 2026-04-29 09:02 318K
20260429T06Z_MSC_RDPS_LiftedIndex-MU-VT_IsbL-0500_RLatLon0.09_PT075H.grib2 2026-04-29 09:02 2.4M
20260429T06Z_MSC_RDPS_NetLongwaveRadiationFlux-Accum_Sfc_RLatLon0.09_PT075H.grib2 2026-04-29 09:02 473K
20260429T06Z_MSC_RDPS_NetShortwaveRadiationFlux-Accum_Sfc_RLatLon0.09_PT075H.grib2 2026-04-29 09:02 620K
20260429T06Z_MSC_RDPS_PlanetaryBoundaryLayerHeight_Sfc_RLatLon0.09_PT075H.grib2 2026-04-29 09:02 1.1M
20260429T06Z_MSC_RDPS_Precip-Accum1h_Sfc_RLatLon0.09_PT075H.grib2 2026-04-29 09:02 1.2M
20260429T06Z_MSC_RDPS_Precip-Accum3h_Sfc_RLatLon0.09_PT075H.grib2 2026-04-29 09:02 1.3M
20260429T06Z_MSC_RDPS_Precip-Accum_Sfc_RLatLon0.09_PT075H.grib2 2026-04-29 09:02 2.2M
20260429T06Z_MSC_RDPS_PrecipRate_Sfc_RLatLon0.09_PT075H.grib2 2026-04-29 09:02 172K
20260429T06Z_MSC_RDPS_PrecipType-Instant_Sfc_RLatLon0.09_PT075H.grib2 2026-04-29 09:02 599K
20260429T06Z_MSC_RDPS_Pressure-Trend3h_Sfc_RLatLon0.09_PT075H.grib2 2026-04-29 09:02 1.2M
20260429T06Z_MSC_RDPS_Pressure_MSL_RLatLon0.09_PT075H.grib2 2026-04-29 09:02 325K
20260429T06Z_MSC_RDPS_Pressure_PVU-1.5_RLatLon0.09_PT075H.grib2 2026-04-29 09:02 2.3M
20260429T06Z_MSC_RDPS_Pressure_PVU-1_RLatLon0.09_PT075H.grib2 2026-04-29 09:02 2.4M
20260429T06Z_MSC_RDPS_Pressure_PVU-2_RLatLon0.09_PT075H.grib2 2026-04-29 09:02 2.4M
20260429T06Z_MSC_RDPS_Pressure_Sfc_RLatLon0.09_PT075H.grib2 2026-04-29 09:02 499K
20260429T06Z_MSC_RDPS_RadiativeTemp_Sfc_RLatLon0.09_PT075H.grib2 2026-04-29 09:02 307K
20260429T06Z_MSC_RDPS_Rain-Accum1h_Sfc_RLatLon0.09_PT075H.grib2 2026-04-29 09:02 551K
20260429T06Z_MSC_RDPS_Rain-Accum3h_Sfc_RLatLon0.09_PT075H.grib2 2026-04-29 09:02 636K
20260429T06Z_MSC_RDPS_Rain-Accum_Sfc_RLatLon0.09_PT075H.grib2 2026-04-29 09:02 1.7M
20260429T06Z_MSC_RDPS_RelativeHumidity_AGL-2m_RLatLon0.09_PT075H.grib2 2026-04-29 09:02 1.0M
20260429T06Z_MSC_RDPS_RelativeHumidity_IsbL-0010_RLatLon0.09_PT075H.grib2 2026-04-29 09:02 620K
20260429T06Z_MSC_RDPS_RelativeHumidity_IsbL-0020_RLatLon0.09_PT075H.grib2 2026-04-29 09:02 638K
20260429T06Z_MSC_RDPS_RelativeHumidity_IsbL-0030_RLatLon0.09_PT075H.grib2 2026-04-29 09:02 601K
20260429T06Z_MSC_RDPS_RelativeHumidity_IsbL-0050_RLatLon0.09_PT075H.grib2 2026-04-29 09:02 311K
20260429T06Z_MSC_RDPS_RelativeHumidity_IsbL-0100_RLatLon0.09_PT075H.grib2 2026-04-29 09:02 271K
20260429T06Z_MSC_RDPS_RelativeHumidity_IsbL-0150_RLatLon0.09_PT075H.grib2 2026-04-29 09:02 397K
20260429T06Z_MSC_RDPS_RelativeHumidity_IsbL-0175_RLatLon0.09_PT075H.grib2 2026-04-29 09:02 463K
20260429T06Z_MSC_RDPS_RelativeHumidity_IsbL-0200_RLatLon0.09_PT075H.grib2 2026-04-29 09:02 547K
20260429T06Z_MSC_RDPS_RelativeHumidity_IsbL-0225_RLatLon0.09_PT075H.grib2 2026-04-29 09:02 614K
20260429T06Z_MSC_RDPS_RelativeHumidity_IsbL-0250_RLatLon0.09_PT075H.grib2 2026-04-29 09:02 674K
20260429T06Z_MSC_RDPS_RelativeHumidity_IsbL-0275_RLatLon0.09_PT075H.grib2 2026-04-29 09:02 693K
20260429T06Z_MSC_RDPS_RelativeHumidity_IsbL-0300_RLatLon0.09_PT075H.grib2 2026-04-29 09:02 732K
20260429T06Z_MSC_RDPS_RelativeHumidity_IsbL-0350_RLatLon0.09_PT075H.grib2 2026-04-29 09:02 752K
20260429T06Z_MSC_RDPS_RelativeHumidity_IsbL-0400_RLatLon0.09_PT075H.grib2 2026-04-29 09:02 775K
20260429T06Z_MSC_RDPS_RelativeHumidity_IsbL-0450_RLatLon0.09_PT075H.grib2 2026-04-29 09:02 795K
20260429T06Z_MSC_RDPS_RelativeHumidity_IsbL-0500_RLatLon0.09_PT075H.grib2 2026-04-29 09:02 807K
20260429T06Z_MSC_RDPS_RelativeHumidity_IsbL-0550_RLatLon0.09_PT075H.grib2 2026-04-29 09:02 827K
20260429T06Z_MSC_RDPS_RelativeHumidity_IsbL-0600_RLatLon0.09_PT075H.grib2 2026-04-29 09:02 848K
20260429T06Z_MSC_RDPS_RelativeHumidity_IsbL-0650_RLatLon0.09_PT075H.grib2 2026-04-29 09:02 854K
20260429T06Z_MSC_RDPS_RelativeHumidity_IsbL-0700_RLatLon0.09_PT075H.grib2 2026-04-29 09:02 875K
20260429T06Z_MSC_RDPS_RelativeHumidity_IsbL-0750_RLatLon0.09_PT075H.grib2 2026-04-29 09:02 926K
20260429T06Z_MSC_RDPS_RelativeHumidity_IsbL-0800_RLatLon0.09_PT075H.grib2 2026-04-29 09:02 1.0M
20260429T06Z_MSC_RDPS_RelativeHumidity_IsbL-0850_RLatLon0.09_PT075H.grib2 2026-04-29 09:02 1.0M
20260429T06Z_MSC_RDPS_RelativeHumidity_IsbL-0875_RLatLon0.09_PT075H.grib2 2026-04-29 09:02 1.1M
20260429T06Z_MSC_RDPS_RelativeHumidity_IsbL-0900_RLatLon0.09_PT075H.grib2 2026-04-29 09:02 1.1M
20260429T06Z_MSC_RDPS_RelativeHumidity_IsbL-0925_RLatLon0.09_PT075H.grib2 2026-04-29 09:02 1.1M
20260429T06Z_MSC_RDPS_RelativeHumidity_IsbL-0950_RLatLon0.09_PT075H.grib2 2026-04-29 09:02 1.1M
20260429T06Z_MSC_RDPS_RelativeHumidity_IsbL-0970_RLatLon0.09_PT075H.grib2 2026-04-29 09:02 1.0M
20260429T06Z_MSC_RDPS_RelativeHumidity_IsbL-0985_RLatLon0.09_PT075H.grib2 2026-04-29 09:02 1.0M
20260429T06Z_MSC_RDPS_RelativeHumidity_IsbL-1000_RLatLon0.09_PT075H.grib2 2026-04-29 09:02 1.0M
20260429T06Z_MSC_RDPS_RelativeHumidity_IsbL-1015_RLatLon0.09_PT075H.grib2 2026-04-29 09:02 1.0M
20260429T06Z_MSC_RDPS_Runoff-Accum_Sfc_RLatLon0.09_PT075H.grib2 2026-04-29 09:02 66K
20260429T06Z_MSC_RDPS_SWEATIndex_Sfc_RLatLon0.09_PT075H.grib2 2026-04-29 09:02 2.4M
20260429T06Z_MSC_RDPS_SeeingIndex_EAtm_RLatLon0.09_PT075H.grib2 2026-04-29 09:02 1.0M
20260429T06Z_MSC_RDPS_SensibleHeatNetFlux_Sfc_RLatLon0.09_PT075H.grib2 2026-04-29 09:02 296K
20260429T06Z_MSC_RDPS_ShowalterIndex_IsbL-0500_RLatLon0.09_PT075H.grib2 2026-04-29 09:02 2.6M
20260429T06Z_MSC_RDPS_SkyTransparencyIndex_EAtm_RLatLon0.09_PT075H.grib2 2026-04-29 09:02 691K
20260429T06Z_MSC_RDPS_Snow-Accum1h_Sfc_RLatLon0.09_PT075H.grib2 2026-04-29 09:02 386K
20260429T06Z_MSC_RDPS_Snow-Accum3h_Sfc_RLatLon0.09_PT075H.grib2 2026-04-29 09:02 400K
20260429T06Z_MSC_RDPS_Snow-Accum_Sfc_RLatLon0.09_PT075H.grib2 2026-04-29 09:02 806K
20260429T06Z_MSC_RDPS_SnowDensity_Sfc_RLatLon0.09_PT075H.grib2 2026-04-29 09:02 179K
20260429T06Z_MSC_RDPS_SnowDepth_Sfc_RLatLon0.09_PT075H.grib2 2026-04-29 09:02 674K
20260429T06Z_MSC_RDPS_SoilTemp_DBS-0to10cm_RLatLon0.09_PT075H.grib2 2026-04-29 09:02 242K
20260429T06Z_MSC_RDPS_SoilTemp_Sfc_RLatLon0.09_PT075H.grib2 2026-04-29 09:02 268K
20260429T06Z_MSC_RDPS_SoilVolumetricIceContent_Sfc_RLatLon0.09_PT075H.grib2 2026-04-29 09:02 161K
20260429T06Z_MSC_RDPS_SoilVolumetricWaterContent_DBS-0to10cm_RLatLon0.09_PT075H.grib2 2026-04-29 09:02 272K
20260429T06Z_MSC_RDPS_SoilVolumetricWaterContent_DBS-0to1cm_RLatLon0.09_PT075H.grib2 2026-04-29 09:02 340K
20260429T06Z_MSC_RDPS_SpecificHumidity_AGL-120m_RLatLon0.09_PT075H.grib2 2026-04-29 09:02 487K
20260429T06Z_MSC_RDPS_SpecificHumidity_AGL-2m_RLatLon0.09_PT075H.grib2 2026-04-29 09:02 652K
20260429T06Z_MSC_RDPS_SpecificHumidity_AGL-40m_RLatLon0.09_PT075H.grib2 2026-04-29 09:02 492K
20260429T06Z_MSC_RDPS_SpecificHumidity_AGL-80m_RLatLon0.09_PT075H.grib2 2026-04-29 09:02 489K
20260429T06Z_MSC_RDPS_SpecificHumidity_IsbL-0001_RLatLon0.09_PT075H.grib2 2026-04-29 09:02 356K
20260429T06Z_MSC_RDPS_SpecificHumidity_IsbL-0005_RLatLon0.09_PT075H.grib2 2026-04-29 09:02 353K
20260429T06Z_MSC_RDPS_SpecificHumidity_IsbL-0010_RLatLon0.09_PT075H.grib2 2026-04-29 09:02 386K
20260429T06Z_MSC_RDPS_SpecificHumidity_IsbL-0020_RLatLon0.09_PT075H.grib2 2026-04-29 09:02 372K
20260429T06Z_MSC_RDPS_SpecificHumidity_IsbL-0030_RLatLon0.09_PT075H.grib2 2026-04-29 09:02 357K
20260429T06Z_MSC_RDPS_SpecificHumidity_IsbL-0050_RLatLon0.09_PT075H.grib2 2026-04-29 09:02 437K
20260429T06Z_MSC_RDPS_SpecificHumidity_IsbL-0100_RLatLon0.09_PT075H.grib2 2026-04-29 09:02 518K
20260429T06Z_MSC_RDPS_SpecificHumidity_IsbL-0150_RLatLon0.09_PT075H.grib2 2026-04-29 09:02 440K
20260429T06Z_MSC_RDPS_SpecificHumidity_IsbL-0175_RLatLon0.09_PT075H.grib2 2026-04-29 09:02 421K
20260429T06Z_MSC_RDPS_SpecificHumidity_IsbL-0200_RLatLon0.09_PT075H.grib2 2026-04-29 09:02 438K
20260429T06Z_MSC_RDPS_SpecificHumidity_IsbL-0225_RLatLon0.09_PT075H.grib2 2026-04-29 09:02 445K
20260429T06Z_MSC_RDPS_SpecificHumidity_IsbL-0250_RLatLon0.09_PT075H.grib2 2026-04-29 09:02 502K
20260429T06Z_MSC_RDPS_SpecificHumidity_IsbL-0275_RLatLon0.09_PT075H.grib2 2026-04-29 09:02 459K
20260429T06Z_MSC_RDPS_SpecificHumidity_IsbL-0300_RLatLon0.09_PT075H.grib2 2026-04-29 09:02 432K
20260429T06Z_MSC_RDPS_SpecificHumidity_IsbL-0350_RLatLon0.09_PT075H.grib2 2026-04-29 09:02 424K
20260429T06Z_MSC_RDPS_SpecificHumidity_IsbL-0400_RLatLon0.09_PT075H.grib2 2026-04-29 09:02 506K
20260429T06Z_MSC_RDPS_SpecificHumidity_IsbL-0450_RLatLon0.09_PT075H.grib2 2026-04-29 09:02 569K
20260429T06Z_MSC_RDPS_SpecificHumidity_IsbL-0500_RLatLon0.09_PT075H.grib2 2026-04-29 09:02 508K
20260429T06Z_MSC_RDPS_SpecificHumidity_IsbL-0550_RLatLon0.09_PT075H.grib2 2026-04-29 09:02 582K
20260429T06Z_MSC_RDPS_SpecificHumidity_IsbL-0600_RLatLon0.09_PT075H.grib2 2026-04-29 09:02 636K
20260429T06Z_MSC_RDPS_SpecificHumidity_IsbL-0650_RLatLon0.09_PT075H.grib2 2026-04-29 09:02 548K
20260429T06Z_MSC_RDPS_SpecificHumidity_IsbL-0700_RLatLon0.09_PT075H.grib2 2026-04-29 09:02 591K
20260429T06Z_MSC_RDPS_SpecificHumidity_IsbL-0750_RLatLon0.09_PT075H.grib2 2026-04-29 09:02 645K
20260429T06Z_MSC_RDPS_SpecificHumidity_IsbL-0800_RLatLon0.09_PT075H.grib2 2026-04-29 09:02 725K
20260429T06Z_MSC_RDPS_SpecificHumidity_IsbL-0850_RLatLon0.09_PT075H.grib2 2026-04-29 09:02 799K
20260429T06Z_MSC_RDPS_SpecificHumidity_IsbL-0875_RLatLon0.09_PT075H.grib2 2026-04-29 09:02 826K
20260429T06Z_MSC_RDPS_SpecificHumidity_IsbL-0900_RLatLon0.09_PT075H.grib2 2026-04-29 09:02 836K
20260429T06Z_MSC_RDPS_SpecificHumidity_IsbL-0925_RLatLon0.09_PT075H.grib2 2026-04-29 09:02 836K
20260429T06Z_MSC_RDPS_SpecificHumidity_IsbL-0950_RLatLon0.09_PT075H.grib2 2026-04-29 09:02 839K
20260429T06Z_MSC_RDPS_SpecificHumidity_IsbL-0970_RLatLon0.09_PT075H.grib2 2026-04-29 09:02 689K
20260429T06Z_MSC_RDPS_SpecificHumidity_IsbL-0985_RLatLon0.09_PT075H.grib2 2026-04-29 09:02 681K
20260429T06Z_MSC_RDPS_SpecificHumidity_IsbL-1000_RLatLon0.09_PT075H.grib2 2026-04-29 09:02 674K
20260429T06Z_MSC_RDPS_SpecificHumidity_IsbL-1015_RLatLon0.09_PT075H.grib2 2026-04-29 09:02 663K
20260429T06Z_MSC_RDPS_SpecificHumidity_Sfc_RLatLon0.09_PT075H.grib2 2026-04-29 09:02 296K
20260429T06Z_MSC_RDPS_StormRelativeHelicity_EtaL-10000_RLatLon0.09_PT075H.grib2 2026-04-29 09:02 1.1M
20260429T06Z_MSC_RDPS_StormSeverityIndex_EtaL-10000_RLatLon0.09_PT075H.grib2 2026-04-29 09:02 1.1M
20260429T06Z_MSC_RDPS_Thickness_IsbL-0850to0700_RLatLon0.09_PT075H.grib2 2026-04-29 09:02 177K
20260429T06Z_MSC_RDPS_Thickness_IsbL-1000to0500_RLatLon0.09_PT075H.grib2 2026-04-29 09:02 196K
20260429T06Z_MSC_RDPS_Thickness_IsbL-1000to0850_RLatLon0.09_PT075H.grib2 2026-04-29 09:02 261K
20260429T06Z_MSC_RDPS_TotalCloudCover_Sfc_RLatLon0.09_PT075H.grib2 2026-04-29 09:02 651K
20260429T06Z_MSC_RDPS_TotalTotalsIndex_Sfc_RLatLon0.09_PT075H.grib2 2026-04-29 09:02 2.4M
20260429T06Z_MSC_RDPS_UVIndex-ClearSky_Sfc_RLatLon0.09_PT075H.grib2 2026-04-29 09:02 114K
20260429T06Z_MSC_RDPS_UVIndex_Sfc_RLatLon0.09_PT075H.grib2 2026-04-29 09:02 204K
20260429T06Z_MSC_RDPS_UpwardLongwaveRadiationFlux_NTAtm_RLatLon0.09_PT075H.grib2 2026-04-29 09:02 480K
20260429T06Z_MSC_RDPS_UpwardShortwaveRadiationFlux_NTAtm_RLatLon0.09_PT075H.grib2 2026-04-29 09:02 164K
20260429T06Z_MSC_RDPS_VerticalVelocity_IsbL-0250_RLatLon0.09_PT075H.grib2 2026-04-29 09:02 427K
20260429T06Z_MSC_RDPS_VerticalVelocity_IsbL-0500_RLatLon0.09_PT075H.grib2 2026-04-29 09:02 540K
20260429T06Z_MSC_RDPS_VerticalVelocity_IsbL-0700_RLatLon0.09_PT075H.grib2 2026-04-29 09:02 575K
20260429T06Z_MSC_RDPS_VerticalVelocity_IsbL-0850_RLatLon0.09_PT075H.grib2 2026-04-29 09:02 710K
20260429T06Z_MSC_RDPS_VerticalWindShear_EtaL-6500_RLatLon0.09_PT075H.grib2 2026-04-29 09:02 1.2M
20260429T06Z_MSC_RDPS_WindChill_Sfc_RLatLon0.09_PT075H.grib2 2026-04-29 09:02 1.2M
20260429T06Z_MSC_RDPS_WindDir_AGL-10m_RLatLon0.09_PT075H.grib2 2026-04-29 09:02 965K
20260429T06Z_MSC_RDPS_WindDir_AGL-120m_RLatLon0.09_PT075H.grib2 2026-04-29 09:02 600K
20260429T06Z_MSC_RDPS_WindDir_AGL-40m_RLatLon0.09_PT075H.grib2 2026-04-29 09:02 633K
20260429T06Z_MSC_RDPS_WindDir_AGL-80m_RLatLon0.09_PT075H.grib2 2026-04-29 09:02 612K
20260429T06Z_MSC_RDPS_WindDir_IsbL-0001_RLatLon0.09_PT075H.grib2 2026-04-29 09:02 314K
20260429T06Z_MSC_RDPS_WindDir_IsbL-0005_RLatLon0.09_PT075H.grib2 2026-04-29 09:02 365K
20260429T06Z_MSC_RDPS_WindDir_IsbL-0010_RLatLon0.09_PT075H.grib2 2026-04-29 09:02 385K
20260429T06Z_MSC_RDPS_WindDir_IsbL-0020_RLatLon0.09_PT075H.grib2 2026-04-29 09:02 433K
20260429T06Z_MSC_RDPS_WindDir_IsbL-0030_RLatLon0.09_PT075H.grib2 2026-04-29 09:02 404K
20260429T06Z_MSC_RDPS_WindDir_IsbL-0050_RLatLon0.09_PT075H.grib2 2026-04-29 09:02 431K
20260429T06Z_MSC_RDPS_WindDir_IsbL-0100_RLatLon0.09_PT075H.grib2 2026-04-29 09:02 414K
20260429T06Z_MSC_RDPS_WindDir_IsbL-0150_RLatLon0.09_PT075H.grib2 2026-04-29 09:02 397K
20260429T06Z_MSC_RDPS_WindDir_IsbL-0175_RLatLon0.09_PT075H.grib2 2026-04-29 09:02 422K
20260429T06Z_MSC_RDPS_WindDir_IsbL-0200_RLatLon0.09_PT075H.grib2 2026-04-29 09:02 433K
20260429T06Z_MSC_RDPS_WindDir_IsbL-0225_RLatLon0.09_PT075H.grib2 2026-04-29 09:02 442K
20260429T06Z_MSC_RDPS_WindDir_IsbL-0250_RLatLon0.09_PT075H.grib2 2026-04-29 09:02 445K
20260429T06Z_MSC_RDPS_WindDir_IsbL-0275_RLatLon0.09_PT075H.grib2 2026-04-29 09:02 471K
20260429T06Z_MSC_RDPS_WindDir_IsbL-0300_RLatLon0.09_PT075H.grib2 2026-04-29 09:02 469K
20260429T06Z_MSC_RDPS_WindDir_IsbL-0350_RLatLon0.09_PT075H.grib2 2026-04-29 09:02 494K
20260429T06Z_MSC_RDPS_WindDir_IsbL-0400_RLatLon0.09_PT075H.grib2 2026-04-29 09:02 515K
20260429T06Z_MSC_RDPS_WindDir_IsbL-0450_RLatLon0.09_PT075H.grib2 2026-04-29 09:02 528K
20260429T06Z_MSC_RDPS_WindDir_IsbL-0500_RLatLon0.09_PT075H.grib2 2026-04-29 09:02 542K
20260429T06Z_MSC_RDPS_WindDir_IsbL-0550_RLatLon0.09_PT075H.grib2 2026-04-29 09:02 557K
20260429T06Z_MSC_RDPS_WindDir_IsbL-0600_RLatLon0.09_PT075H.grib2 2026-04-29 09:02 582K
20260429T06Z_MSC_RDPS_WindDir_IsbL-0650_RLatLon0.09_PT075H.grib2 2026-04-29 09:02 622K
20260429T06Z_MSC_RDPS_WindDir_IsbL-0700_RLatLon0.09_PT075H.grib2 2026-04-29 09:02 661K
20260429T06Z_MSC_RDPS_WindDir_IsbL-0750_RLatLon0.09_PT075H.grib2 2026-04-29 09:02 707K
20260429T06Z_MSC_RDPS_WindDir_IsbL-0800_RLatLon0.09_PT075H.grib2 2026-04-29 09:02 770K
20260429T06Z_MSC_RDPS_WindDir_IsbL-0850_RLatLon0.09_PT075H.grib2 2026-04-29 09:02 856K
20260429T06Z_MSC_RDPS_WindDir_IsbL-0875_RLatLon0.09_PT075H.grib2 2026-04-29 09:02 892K
20260429T06Z_MSC_RDPS_WindDir_IsbL-0900_RLatLon0.09_PT075H.grib2 2026-04-29 09:02 910K
20260429T06Z_MSC_RDPS_WindDir_IsbL-0925_RLatLon0.09_PT075H.grib2 2026-04-29 09:02 916K
20260429T06Z_MSC_RDPS_WindDir_IsbL-0950_RLatLon0.09_PT075H.grib2 2026-04-29 09:02 912K
20260429T06Z_MSC_RDPS_WindDir_IsbL-0970_RLatLon0.09_PT075H.grib2 2026-04-29 09:02 920K
20260429T06Z_MSC_RDPS_WindDir_IsbL-0985_RLatLon0.09_PT075H.grib2 2026-04-29 09:02 928K
20260429T06Z_MSC_RDPS_WindDir_IsbL-1000_RLatLon0.09_PT075H.grib2 2026-04-29 09:02 940K
20260429T06Z_MSC_RDPS_WindDir_IsbL-1015_RLatLon0.09_PT075H.grib2 2026-04-29 09:02 955K
20260429T06Z_MSC_RDPS_WindGust-Max_AGL-10m_RLatLon0.09_PT075H.grib2 2026-04-29 09:02 963K
20260429T06Z_MSC_RDPS_WindGust-Min_AGL-10m_RLatLon0.09_PT075H.grib2 2026-04-29 09:02 969K
20260429T06Z_MSC_RDPS_WindGust_AGL-10m_RLatLon0.09_PT075H.grib2 2026-04-29 09:02 1.0M
20260429T06Z_MSC_RDPS_WindSpeed_AGL-10m_RLatLon0.09_PT075H.grib2 2026-04-29 09:02 842K
20260429T06Z_MSC_RDPS_WindSpeed_AGL-120m_RLatLon0.09_PT075H.grib2 2026-04-29 09:02 543K
20260429T06Z_MSC_RDPS_WindSpeed_AGL-40m_RLatLon0.09_PT075H.grib2 2026-04-29 09:02 544K
20260429T06Z_MSC_RDPS_WindSpeed_AGL-80m_RLatLon0.09_PT075H.grib2 2026-04-29 09:02 543K
20260429T06Z_MSC_RDPS_WindSpeed_IsbL-0001_RLatLon0.09_PT075H.grib2 2026-04-29 09:02 253K
20260429T06Z_MSC_RDPS_WindSpeed_IsbL-0005_RLatLon0.09_PT075H.grib2 2026-04-29 09:02 384K
20260429T06Z_MSC_RDPS_WindSpeed_IsbL-0010_RLatLon0.09_PT075H.grib2 2026-04-29 09:02 398K
20260429T06Z_MSC_RDPS_WindSpeed_IsbL-0020_RLatLon0.09_PT075H.grib2 2026-04-29 09:02 318K
20260429T06Z_MSC_RDPS_WindSpeed_IsbL-0030_RLatLon0.09_PT075H.grib2 2026-04-29 09:02 315K
20260429T06Z_MSC_RDPS_WindSpeed_IsbL-0050_RLatLon0.09_PT075H.grib2 2026-04-29 09:02 448K
20260429T06Z_MSC_RDPS_WindSpeed_IsbL-0100_RLatLon0.09_PT075H.grib2 2026-04-29 09:02 472K
20260429T06Z_MSC_RDPS_WindSpeed_IsbL-0150_RLatLon0.09_PT075H.grib2 2026-04-29 09:02 374K
20260429T06Z_MSC_RDPS_WindSpeed_IsbL-0175_RLatLon0.09_PT075H.grib2 2026-04-29 09:02 420K
20260429T06Z_MSC_RDPS_WindSpeed_IsbL-0200_RLatLon0.09_PT075H.grib2 2026-04-29 09:02 435K
20260429T06Z_MSC_RDPS_WindSpeed_IsbL-0225_RLatLon0.09_PT075H.grib2 2026-04-29 09:02 441K
20260429T06Z_MSC_RDPS_WindSpeed_IsbL-0250_RLatLon0.09_PT075H.grib2 2026-04-29 09:02 443K
20260429T06Z_MSC_RDPS_WindSpeed_IsbL-0275_RLatLon0.09_PT075H.grib2 2026-04-29 09:02 459K
20260429T06Z_MSC_RDPS_WindSpeed_IsbL-0300_RLatLon0.09_PT075H.grib2 2026-04-29 09:02 457K
20260429T06Z_MSC_RDPS_WindSpeed_IsbL-0350_RLatLon0.09_PT075H.grib2 2026-04-29 09:02 469K
20260429T06Z_MSC_RDPS_WindSpeed_IsbL-0400_RLatLon0.09_PT075H.grib2 2026-04-29 09:02 475K
20260429T06Z_MSC_RDPS_WindSpeed_IsbL-0450_RLatLon0.09_PT075H.grib2 2026-04-29 09:02 459K
20260429T06Z_MSC_RDPS_WindSpeed_IsbL-0500_RLatLon0.09_PT075H.grib2 2026-04-29 09:02 461K
20260429T06Z_MSC_RDPS_WindSpeed_IsbL-0550_RLatLon0.09_PT075H.grib2 2026-04-29 09:02 583K
20260429T06Z_MSC_RDPS_WindSpeed_IsbL-0600_RLatLon0.09_PT075H.grib2 2026-04-29 09:02 594K
20260429T06Z_MSC_RDPS_WindSpeed_IsbL-0650_RLatLon0.09_PT075H.grib2 2026-04-29 09:02 612K
20260429T06Z_MSC_RDPS_WindSpeed_IsbL-0700_RLatLon0.09_PT075H.grib2 2026-04-29 09:02 678K
20260429T06Z_MSC_RDPS_WindSpeed_IsbL-0750_RLatLon0.09_PT075H.grib2 2026-04-29 09:02 664K
20260429T06Z_MSC_RDPS_WindSpeed_IsbL-0800_RLatLon0.09_PT075H.grib2 2026-04-29 09:02 708K
20260429T06Z_MSC_RDPS_WindSpeed_IsbL-0850_RLatLon0.09_PT075H.grib2 2026-04-29 09:02 769K
20260429T06Z_MSC_RDPS_WindSpeed_IsbL-0875_RLatLon0.09_PT075H.grib2 2026-04-29 09:02 793K
20260429T06Z_MSC_RDPS_WindSpeed_IsbL-0900_RLatLon0.09_PT075H.grib2 2026-04-29 09:02 808K
20260429T06Z_MSC_RDPS_WindSpeed_IsbL-0925_RLatLon0.09_PT075H.grib2 2026-04-29 09:02 864K
20260429T06Z_MSC_RDPS_WindSpeed_IsbL-0950_RLatLon0.09_PT075H.grib2 2026-04-29 09:02 866K
20260429T06Z_MSC_RDPS_WindSpeed_IsbL-0970_RLatLon0.09_PT075H.grib2 2026-04-29 09:02 866K
20260429T06Z_MSC_RDPS_WindSpeed_IsbL-0985_RLatLon0.09_PT075H.grib2 2026-04-29 09:02 859K
20260429T06Z_MSC_RDPS_WindSpeed_IsbL-1000_RLatLon0.09_PT075H.grib2 2026-04-29 09:02 851K
20260429T06Z_MSC_RDPS_WindSpeed_IsbL-1015_RLatLon0.09_PT075H.grib2 2026-04-29 09:02 841K
20260429T06Z_MSC_RDPS_WindU_AGL-10m_RLatLon0.09_PT075H.grib2 2026-04-29 09:02 431K
20260429T06Z_MSC_RDPS_WindU_AGL-120m_RLatLon0.09_PT075H.grib2 2026-04-29 09:02 537K
20260429T06Z_MSC_RDPS_WindU_AGL-40m_RLatLon0.09_PT075H.grib2 2026-04-29 09:02 538K
20260429T06Z_MSC_RDPS_WindU_AGL-80m_RLatLon0.09_PT075H.grib2 2026-04-29 09:02 538K
20260429T06Z_MSC_RDPS_WindU_IsbL-0001_RLatLon0.09_PT075H.grib2 2026-04-29 09:02 292K
20260429T06Z_MSC_RDPS_WindU_IsbL-0005_RLatLon0.09_PT075H.grib2 2026-04-29 09:02 284K
20260429T06Z_MSC_RDPS_WindU_IsbL-0010_RLatLon0.09_PT075H.grib2 2026-04-29 09:02 295K
20260429T06Z_MSC_RDPS_WindU_IsbL-0020_RLatLon0.09_PT075H.grib2 2026-04-29 09:02 310K
20260429T06Z_MSC_RDPS_WindU_IsbL-0030_RLatLon0.09_PT075H.grib2 2026-04-29 09:02 349K
20260429T06Z_MSC_RDPS_WindU_IsbL-0050_RLatLon0.09_PT075H.grib2 2026-04-29 09:02 340K
20260429T06Z_MSC_RDPS_WindU_IsbL-0100_RLatLon0.09_PT075H.grib2 2026-04-29 09:02 427K
20260429T06Z_MSC_RDPS_WindU_IsbL-0150_RLatLon0.09_PT075H.grib2 2026-04-29 09:02 390K
20260429T06Z_MSC_RDPS_WindU_IsbL-0175_RLatLon0.09_PT075H.grib2 2026-04-29 09:02 413K
20260429T06Z_MSC_RDPS_WindU_IsbL-0200_RLatLon0.09_PT075H.grib2 2026-04-29 09:02 331K
20260429T06Z_MSC_RDPS_WindU_IsbL-0225_RLatLon0.09_PT075H.grib2 2026-04-29 09:02 336K
20260429T06Z_MSC_RDPS_WindU_IsbL-0250_RLatLon0.09_PT075H.grib2 2026-04-29 09:02 336K
20260429T06Z_MSC_RDPS_WindU_IsbL-0275_RLatLon0.09_PT075H.grib2 2026-04-29 09:02 349K
20260429T06Z_MSC_RDPS_WindU_IsbL-0300_RLatLon0.09_PT075H.grib2 2026-04-29 09:02 346K
20260429T06Z_MSC_RDPS_WindU_IsbL-0350_RLatLon0.09_PT075H.grib2 2026-04-29 09:02 356K
20260429T06Z_MSC_RDPS_WindU_IsbL-0400_RLatLon0.09_PT075H.grib2 2026-04-29 09:02 361K
20260429T06Z_MSC_RDPS_WindU_IsbL-0450_RLatLon0.09_PT075H.grib2 2026-04-29 09:02 466K
20260429T06Z_MSC_RDPS_WindU_IsbL-0500_RLatLon0.09_PT075H.grib2 2026-04-29 09:02 469K
20260429T06Z_MSC_RDPS_WindU_IsbL-0550_RLatLon0.09_PT075H.grib2 2026-04-29 09:02 474K
20260429T06Z_MSC_RDPS_WindU_IsbL-0600_RLatLon0.09_PT075H.grib2 2026-04-29 09:02 466K
20260429T06Z_MSC_RDPS_WindU_IsbL-0650_RLatLon0.09_PT075H.grib2 2026-04-29 09:02 483K
20260429T06Z_MSC_RDPS_WindU_IsbL-0700_RLatLon0.09_PT075H.grib2 2026-04-29 09:02 504K
20260429T06Z_MSC_RDPS_WindU_IsbL-0750_RLatLon0.09_PT075H.grib2 2026-04-29 09:02 530K
20260429T06Z_MSC_RDPS_WindU_IsbL-0800_RLatLon0.09_PT075H.grib2 2026-04-29 09:02 581K
20260429T06Z_MSC_RDPS_WindU_IsbL-0850_RLatLon0.09_PT075H.grib2 2026-04-29 09:02 623K
20260429T06Z_MSC_RDPS_WindU_IsbL-0875_RLatLon0.09_PT075H.grib2 2026-04-29 09:02 643K
20260429T06Z_MSC_RDPS_WindU_IsbL-0900_RLatLon0.09_PT075H.grib2 2026-04-29 09:02 654K
20260429T06Z_MSC_RDPS_WindU_IsbL-0925_RLatLon0.09_PT075H.grib2 2026-04-29 09:02 660K
20260429T06Z_MSC_RDPS_WindU_IsbL-0950_RLatLon0.09_PT075H.grib2 2026-04-29 09:02 659K
20260429T06Z_MSC_RDPS_WindU_IsbL-0970_RLatLon0.09_PT075H.grib2 2026-04-29 09:02 659K
20260429T06Z_MSC_RDPS_WindU_IsbL-0985_RLatLon0.09_PT075H.grib2 2026-04-29 09:02 793K
20260429T06Z_MSC_RDPS_WindU_IsbL-1000_RLatLon0.09_PT075H.grib2 2026-04-29 09:02 786K
20260429T06Z_MSC_RDPS_WindU_IsbL-1015_RLatLon0.09_PT075H.grib2 2026-04-29 09:02 824K
20260429T06Z_MSC_RDPS_WindV_AGL-10m_RLatLon0.09_PT075H.grib2 2026-04-29 09:02 433K
20260429T06Z_MSC_RDPS_WindV_AGL-120m_RLatLon0.09_PT075H.grib2 2026-04-29 09:02 537K
20260429T06Z_MSC_RDPS_WindV_AGL-40m_RLatLon0.09_PT075H.grib2 2026-04-29 09:02 540K
20260429T06Z_MSC_RDPS_WindV_AGL-80m_RLatLon0.09_PT075H.grib2 2026-04-29 09:02 538K
20260429T06Z_MSC_RDPS_WindV_IsbL-0001_RLatLon0.09_PT075H.grib2 2026-04-29 09:02 245K
20260429T06Z_MSC_RDPS_WindV_IsbL-0005_RLatLon0.09_PT075H.grib2 2026-04-29 09:02 286K
20260429T06Z_MSC_RDPS_WindV_IsbL-0010_RLatLon0.09_PT075H.grib2 2026-04-29 09:02 297K
20260429T06Z_MSC_RDPS_WindV_IsbL-0020_RLatLon0.09_PT075H.grib2 2026-04-29 09:02 353K
20260429T06Z_MSC_RDPS_WindV_IsbL-0030_RLatLon0.09_PT075H.grib2 2026-04-29 09:02 311K
20260429T06Z_MSC_RDPS_WindV_IsbL-0050_RLatLon0.09_PT075H.grib2 2026-04-29 09:02 339K
20260429T06Z_MSC_RDPS_WindV_IsbL-0100_RLatLon0.09_PT075H.grib2 2026-04-29 09:02 425K
20260429T06Z_MSC_RDPS_WindV_IsbL-0150_RLatLon0.09_PT075H.grib2 2026-04-29 09:02 391K
20260429T06Z_MSC_RDPS_WindV_IsbL-0175_RLatLon0.09_PT075H.grib2 2026-04-29 09:02 412K
20260429T06Z_MSC_RDPS_WindV_IsbL-0200_RLatLon0.09_PT075H.grib2 2026-04-29 09:02 331K
20260429T06Z_MSC_RDPS_WindV_IsbL-0225_RLatLon0.09_PT075H.grib2 2026-04-29 09:02 335K
20260429T06Z_MSC_RDPS_WindV_IsbL-0250_RLatLon0.09_PT075H.grib2 2026-04-29 09:02 335K
20260429T06Z_MSC_RDPS_WindV_IsbL-0275_RLatLon0.09_PT075H.grib2 2026-04-29 09:02 373K
20260429T06Z_MSC_RDPS_WindV_IsbL-0300_RLatLon0.09_PT075H.grib2 2026-04-29 09:02 345K
20260429T06Z_MSC_RDPS_WindV_IsbL-0350_RLatLon0.09_PT075H.grib2 2026-04-29 09:02 353K
20260429T06Z_MSC_RDPS_WindV_IsbL-0400_RLatLon0.09_PT075H.grib2 2026-04-29 09:02 358K
20260429T06Z_MSC_RDPS_WindV_IsbL-0450_RLatLon0.09_PT075H.grib2 2026-04-29 09:02 462K
20260429T06Z_MSC_RDPS_WindV_IsbL-0500_RLatLon0.09_PT075H.grib2 2026-04-29 09:02 465K
20260429T06Z_MSC_RDPS_WindV_IsbL-0550_RLatLon0.09_PT075H.grib2 2026-04-29 09:02 470K
20260429T06Z_MSC_RDPS_WindV_IsbL-0600_RLatLon0.09_PT075H.grib2 2026-04-29 09:02 462K
20260429T06Z_MSC_RDPS_WindV_IsbL-0650_RLatLon0.09_PT075H.grib2 2026-04-29 09:02 479K
20260429T06Z_MSC_RDPS_WindV_IsbL-0700_RLatLon0.09_PT075H.grib2 2026-04-29 09:02 499K
20260429T06Z_MSC_RDPS_WindV_IsbL-0750_RLatLon0.09_PT075H.grib2 2026-04-29 09:02 525K
20260429T06Z_MSC_RDPS_WindV_IsbL-0800_RLatLon0.09_PT075H.grib2 2026-04-29 09:02 564K
20260429T06Z_MSC_RDPS_WindV_IsbL-0850_RLatLon0.09_PT075H.grib2 2026-04-29 09:02 620K
20260429T06Z_MSC_RDPS_WindV_IsbL-0875_RLatLon0.09_PT075H.grib2 2026-04-29 09:02 641K
20260429T06Z_MSC_RDPS_WindV_IsbL-0900_RLatLon0.09_PT075H.grib2 2026-04-29 09:02 653K
20260429T06Z_MSC_RDPS_WindV_IsbL-0925_RLatLon0.09_PT075H.grib2 2026-04-29 09:02 659K
20260429T06Z_MSC_RDPS_WindV_IsbL-0950_RLatLon0.09_PT075H.grib2 2026-04-29 09:02 798K
20260429T06Z_MSC_RDPS_WindV_IsbL-0970_RLatLon0.09_PT075H.grib2 2026-04-29 09:02 799K
20260429T06Z_MSC_RDPS_WindV_IsbL-0985_RLatLon0.09_PT075H.grib2 2026-04-29 09:02 793K
20260429T06Z_MSC_RDPS_WindV_IsbL-1000_RLatLon0.09_PT075H.grib2 2026-04-29 09:02 785K
20260429T06Z_MSC_RDPS_WindV_IsbL-1015_RLatLon0.09_PT075H.grib2 2026-04-29 09:02 824K